[Date Prev][Date Next][Thread Prev][Thread Next] - [Date Index][Thread Index][Author Index]

2 Line ISS Keps 8-17



ISS 
1 25544U 98067A   03229.45326385  .00013455  00000-0  16099-3 0  3521
2 25544  51.6329  71.8478 0007783 134.7190 289.8505 15.61289863270570



----
Via the sarex mailing list at AMSAT.ORG courtesy of AMSAT-NA.
To unsubscribe, send "unsubscribe sarex" to Majordomo@amsat.org



AMSAT Top AMSAT Home